COSMOS 1275 DEB

Satellite information

Favourite Embed

Satellite Type and Status

DEBRISIN ORBIT

Key statistics

Satellite COSMOS 1275 DEB at a glance.

Uptime

16264

Days in orbit

Revolutions

≈ 13.9

Per day

Orbit

LEO

Low Earth Orbit

Inclination

82.9

Latest

Satellite identification and parameters

Extended collection of information and parameters for COSMOS 1275 DEB.

Object identification

Identified? True

Debris? True

Object name: COSMOS 1275 DEB

International designator: 1981-053JZ

Object number (NORAD): 15541

Object ID (CCSDS): 15541

Country: COMMONWEALTH OF INDEPENDENT STATES (CIS)

Current information (Y/N): Y

RCS size: SMALL

Orbital parameters

Period: 103.841 minutes

Inclination: 82.889 deg

SMA: 7318.253 km

Apoapsis: 964.167 km

Periapsis: 916.069 km

RAAN: 119.4533 deg

Eccentricy: 0.00328615

Argument of periapsis: 171.1182 deg

Mean anomaly: 205.3966 deg

Mean motion: 13.86729077 rev/day

Mean motion (dot): 0.00000674 rev/day2

B* drag term: 0.00056330329 1/REarth

Two-line elements (TLE)

Creation date: Dec. 11, 2025, 7:14 p.m.

Reference frame: TEME

Reference center: EARTH

Epoch: Dec. 11, 2025, 4:02 p.m. UTC

TLE line 0: 0 COSMOS 1275 DEB

TLE line 1: 1 15541U 81053JZ 25345.66836536 .00000674 00000-0 56330-3 0 9992

TLE line 2: 2 15541 82.8890 119.4533 0032861 171.1182 205.3966 13.86729077 95746

Live tracking on map

Real-time ground track for satellite COSMOS 1275 DEB.

In-orbit conjunctions

There are no conjunctions computed for COSMOS 1275 DEB, at the moment. Check back to stay up to date, as we update our databases every day.

Go to all conjunctions

Associated space launch

Navigation satellite providing location information for the Tsiklon-B navigation system

COSMOS 1275 DEB was lifted into orbit during the mission ‘Kosmos-3M | Parus 27’, on board a Kosmos-3M space rocket.

The launch took place on June 4, 1981, 3:41 p.m. from 132/2.

For more information about the launch, click the button.

Launch to space Kosmos-3M | Parus 27
Kosmos-3M | Parus 27

Agency: N/A

Status: Launch Successful

Launch date: June 4, 1981, 3:41 p.m. UTC

Rocket: Kosmos-3M

Launch pad: 132/2

Location: Plesetsk Cosmodrome, Russian Federation

...

Latest news about this satellite

There are no fresh news available about this satellite. Check back as we update our databases every day.


Newsletter sign-up

Weekly statistics, charts and insights to help you stay on top of the space industry.